Weather History for KCNI - September, 2012

Change the Weather History Date:

Saturday, September 15, 2012

  Actual Average (KGVL) Record (KGVL)
Temperature  
Mean Temperature 70 °F 72 °F  
Max Temperature 84 °F 81 °F - ()
Min Temperature 57 °F 63 °F - ()
Degree Days  
Heating Degree Days 0 0  
Month to date heating degree days 0  
Since 1 July heating degree days 0  
Cooling Degree Days 6 7  
Month to date cooling degree days 140  
Year to date cooling degree days 1466  
Growing Degree Days 20 (Base 50)    
Moisture  
Dew Point 51 °F    
Average Humidity 54    
Maximum Humidity 88    
Minimum Humidity 22    
Precipitation  
Precipitation 0.00 in 0.18 in - ()
Month to date precipitation 2.32  
Year to date precipitation 38.57  
Sea Level Pressure  
Sea Level Pressure 30.18 in    
Wind  
Wind Speed 0 mph ()    
Max Wind Speed 5 mph    
Max Gust Speed -    
Visibility 9.7 miles    
Events      
T = Trace of Precipitation, MM = Missing Value Source: Averaged Metar Reports

Daily Weather History Graph

Daily Weather History Graph

Search for Another Location

Airport or City:

Trip Planner

Search our weather history database for the weather conditions in past years. The results will help you decide how hot, cold, wet, or windy it might be!

Date:

Astronomy

Sep. 15, 2012 Rise Set
Actual Time 7:21 AM EDT 7:43 PM EDT
Civil Twilight 6:56 AM EDT 8:08 PM EDT
Nautical Twilight 6:26 AM EDT 8:38 PM EDT
Astronomical Twilight 5:56 AM EDT 9:08 PM EDT
Moon 6:50 AM EDT (9/15) 7:16 PM EDT (9/15)
Length of Visible Light 13h 12m
Length of Day
12h 22m
Waning Crescent, 0% of the Moon is Illuminated
Sep 15
Waning Crescent
Sep 15
New
Sep 22
First Quarter
Sep 29
Full
Oct 8
Last Quarter

Hourly Weather History & Observations

Time (EDT) Temp. Dew Point Humidity Pressure Visibility Wind Dir Wind Speed Gust Speed Precip Events Conditions
12:35 AM 62.6 °F 57.2 °F 82% 30.21 in 10.0 mi Calm Calm - N/A   Clear
12:55 AM 62.6 °F 57.2 °F 82% 30.21 in 10.0 mi Calm Calm - N/A   Clear
1:15 AM 62.6 °F 57.2 °F 82% 30.21 in 10.0 mi Calm Calm - N/A   Clear
1:35 AM 62.6 °F 55.4 °F 77% 30.21 in 10.0 mi Calm Calm - N/A   Clear
1:55 AM 60.8 °F 55.4 °F 82% 30.21 in 10.0 mi Calm Calm - N/A   Clear
2:15 AM 60.8 °F 55.4 °F 82% 30.21 in 10.0 mi Calm Calm - N/A   Clear
2:35 AM 62.6 °F 55.4 °F 77% 30.21 in 10.0 mi Calm Calm - N/A   Clear
2:55 AM 60.8 °F 55.4 °F 82% 30.21 in 10.0 mi Calm Calm - N/A   Mostly Cloudy
3:15 AM 60.8 °F 55.4 °F 82% 30.21 in 10.0 mi Calm Calm - N/A   Scattered Clouds
3:35 AM 60.8 °F 53.6 °F 77% 30.20 in 10.0 mi Calm Calm - N/A   Clear
3:55 AM 60.8 °F 53.6 °F 77% 30.19 in 10.0 mi Calm Calm - N/A   Mostly Cloudy
4:15 AM 60.8 °F 55.4 °F 82% 30.19 in 10.0 mi Calm Calm - N/A   Mostly Cloudy
4:35 AM 59.0 °F 53.6 °F 82% 30.19 in 7.0 mi Calm Calm - N/A   Scattered Clouds
4:55 AM 59.0 °F 53.6 °F 82% 30.19 in 7.0 mi Calm Calm - N/A   Scattered Clouds
5:15 AM 59.0 °F 53.6 °F 82% 30.19 in 10.0 mi Calm Calm - N/A   Scattered Clouds
5:35 AM 59.0 °F 53.6 °F 82% 30.19 in 10.0 mi Calm Calm - N/A   Scattered Clouds
5:55 AM 60.8 °F 53.6 °F 77% 30.19 in 10.0 mi Calm Calm - N/A   Scattered Clouds
6:15 AM 59.0 °F 53.6 °F 82% 30.20 in 10.0 mi Calm Calm - N/A   Mostly Cloudy
6:35 AM 59.0 °F 51.8 °F 77% 30.20 in 7.0 mi Calm Calm - N/A   Scattered Clouds
6:55 AM 57.2 °F 51.8 °F 82% 30.21 in 7.0 mi Calm Calm - N/A   Scattered Clouds
7:15 AM 59.0 °F 53.6 °F 82% 30.21 in 7.0 mi Calm Calm - N/A   Scattered Clouds
7:35 AM 57.2 °F 53.6 °F 88% 30.22 in 7.0 mi Calm Calm - N/A   Scattered Clouds
7:55 AM 59.0 °F 53.6 °F 82% 30.22 in 10.0 mi Calm Calm - N/A   Clear
8:15 AM 60.8 °F 55.4 °F 82% 30.23 in 10.0 mi Calm Calm - N/A   Clear
8:35 AM 60.8 °F 53.6 °F 77% 30.23 in 10.0 mi Calm Calm - N/A   Clear
8:55 AM 62.6 °F 53.6 °F 72% 30.23 in 10.0 mi Calm Calm - N/A   Clear
9:15 AM 66.2 °F 51.8 °F 60% 30.24 in 10.0 mi Calm Calm - N/A   Clear
9:35 AM 68.0 °F 51.8 °F 56% 30.23 in 10.0 mi Calm Calm - N/A   Clear
9:55 AM 69.8 °F 53.6 °F 56% 30.24 in 10.0 mi Calm Calm - N/A   Clear
10:15 AM 71.6 °F 48.2 °F 43% 30.23 in 10.0 mi Calm Calm - N/A   Clear
10:35 AM 75.2 °F 50.0 °F 41% 30.23 in 10.0 mi SE 3.5 mph - N/A   Clear
10:55 AM 77.0 °F 48.2 °F 36% 30.23 in 10.0 mi ESE 3.5 mph - N/A   Clear
11:15 AM 77.0 °F 46.4 °F 34% 30.22 in 10.0 mi East 4.6 mph - N/A   Clear
11:35 AM 78.8 °F 46.4 °F 32% 30.22 in 10.0 mi Calm Calm - N/A   Clear
11:55 AM 80.6 °F 46.4 °F 30% 30.21 in 10.0 mi Calm Calm - N/A   Clear
12:15 PM 80.6 °F 42.8 °F 26% 30.21 in 10.0 mi Calm Calm - N/A   Clear
12:35 PM 82.4 °F 42.8 °F 25% 30.20 in 10.0 mi Calm Calm - N/A   Scattered Clouds
12:55 PM 82.4 °F 44.6 °F 26% 30.20 in 10.0 mi Calm Calm - N/A   Scattered Clouds
1:15 PM 82.4 °F 44.6 °F 26% 30.19 in 10.0 mi Calm Calm - N/A   Mostly Cloudy
1:35 PM 82.4 °F 42.8 °F 25% 30.18 in 10.0 mi Calm Calm - N/A   Scattered Clouds
1:55 PM 80.6 °F 44.6 °F 28% 30.17 in 10.0 mi Calm Calm - N/A   Scattered Clouds
2:15 PM 80.6 °F 46.4 °F 30% 30.16 in 10.0 mi Calm Calm - N/A   Mostly Cloudy
2:35 PM 82.4 °F 41.0 °F 23% 30.16 in 10.0 mi Calm Calm - N/A   Mostly Cloudy
2:55 PM 80.6 °F 46.4 °F 30% 30.15 in 10.0 mi Calm Calm - N/A   Overcast
3:15 PM 80.6 °F 44.6 °F 28% 30.15 in 10.0 mi Calm Calm - N/A   Overcast
3:35 PM 80.6 °F 44.6 °F 28% 30.14 in 10.0 mi Calm Calm - N/A   Scattered Clouds
3:55 PM 82.4 °F 42.8 °F 25% 30.14 in 10.0 mi Calm Calm - N/A   Mostly Cloudy
4:15 PM 84.2 °F 41.0 °F 22% 30.14 in 10.0 mi Calm Calm - N/A   Mostly Cloudy
4:35 PM 80.6 °F 44.6 °F 28% 30.14 in 10.0 mi Calm Calm - N/A   Overcast
4:55 PM 80.6 °F 46.4 °F 30% 30.14 in 10.0 mi Calm Calm - N/A   Overcast
5:15 PM 80.6 °F 46.4 °F 30% 30.13 in 10.0 mi WNW 3.5 mph - N/A   Overcast
5:35 PM 82.4 °F 44.6 °F 26% 30.13 in 10.0 mi Calm Calm - N/A   Mostly Cloudy
5:55 PM 80.6 °F 46.4 °F 30% 30.13 in 10.0 mi Calm Calm - N/A   Scattered Clouds
6:15 PM 80.6 °F 44.6 °F 28% 30.13 in 10.0 mi Calm Calm - N/A   Clear
6:35 PM 78.8 °F 46.4 °F 32% 30.13 in 10.0 mi Calm Calm - N/A   Clear
6:55 PM 78.8 °F 46.4 °F 32% 30.13 in 10.0 mi Calm Calm - N/A   Clear
7:15 PM 78.8 °F 46.4 °F 32% 30.13 in 10.0 mi Calm Calm - N/A   Scattered Clouds
7:35 PM 77.0 °F 46.4 °F 34% 30.13 in 10.0 mi Calm Calm - N/A   Scattered Clouds
7:55 PM 77.0 °F 48.2 °F 36% 30.13 in 10.0 mi Calm Calm - N/A   Scattered Clouds
8:15 PM 75.2 °F 50.0 °F 41% 30.13 in 10.0 mi Calm Calm - N/A   Mostly Cloudy
8:35 PM 73.4 °F 51.8 °F 47% 30.13 in 10.0 mi Calm Calm - N/A   Scattered Clouds
8:55 PM 71.6 °F 51.8 °F 50% 30.14 in 10.0 mi Calm Calm - N/A   Clear
9:15 PM 71.6 °F 53.6 °F 53% 30.14 in 10.0 mi Calm Calm - N/A   Scattered Clouds
9:35 PM 71.6 °F 55.4 °F 57% 30.14 in 10.0 mi Calm Calm - N/A   Scattered Clouds
9:55 PM 69.8 °F 55.4 °F 60% 30.14 in 10.0 mi Calm Calm - N/A   Clear
10:15 PM 68.0 °F 55.4 °F 64% 30.14 in 10.0 mi NW 3.5 mph - N/A   Clear
10:35 PM 68.0 °F 55.4 °F 64% 30.14 in 10.0 mi NW 3.5 mph - N/A   Clear
10:55 PM 68.0 °F 55.4 °F 64% 30.14 in 10.0 mi Calm Calm - N/A   Clear
11:15 PM 68.0 °F 55.4 °F 64% 30.15 in 10.0 mi Calm Calm - N/A   Clear
11:35 PM 66.2 °F 55.4 °F 68% 30.15 in 10.0 mi North 3.5 mph - N/A   Scattered Clouds
11:55 PM 66.2 °F 57.2 °F 73% 30.15 in 10.0 mi Calm Calm - N/A   Clear